Location: St. Louis
(38.6270°N, 90.1994°W)
Time: 20:39:19
(UTC-06:00)

A-11 Canister half - Pass Details

Date: 01 December 2021
Orbit: 1524 x 1684 km, 47.3° (Epoch: 26 January)

Event Time Altitude Azimuth Distance (km) Brightness Sun altitude
Exits shadow 02:19:37 30° 61° (ENE) 2,674 10.4 -53.9°
Drops below altitude 10° 02:23:46 10° 60° (ENE) 3,900 11.5 -53.1°
Sets 02:26:53 0° 60° (ENE) 4,871 12.2 -52.5°
